Regional Weather Roundup
Issued by NWS

Home | Current Version | Previous Version | Graphics & Text | Print | Product List | Glossary On
Versions: 1 2 3 4 5 6 7 8 9 10 11 12 13 14 15 16 17 18 19 20 21 22 23 24 25 26 27 28 29 30 31 32 33 34 35 36 37 38 39 40 41 42 43 44 45 46 47 48 49 50
000
ASUS43 KMPX 290410
RWRMN
WEATHER ROUNDUP FOR MINNESOTA
NATIONAL WEATHER SERVICE TWIN CITIES/CHANHASSEN MN
1100 PM CDT MON JUL 28 2014


NOTE: "FAIR" INDICATES FEW OR NO CLOUDS BELOW 12,000 FEET WITH NO
SIGNIFICANT WEATHER AND/OR OBSTRUCTIONS TO VISIBILITY. N/A MEANS
CURRENT SKY AND/OR WEATHER CONDITIONS ARE NOT AVAILABLE.

MNZ060>063-068>070-290500-
   Twin Cities Metro

CITY           SKY/WX    TMP DP  RH WIND       PRES   REMARKS
TWIN CITIES    CLEAR     67  55  65 W6        30.13S
ST PAUL        CLEAR     64  55  72 CALM      30.13S
CRYSTAL        CLEAR     65  54  67 NW6       30.13R
BLAINE         CLEAR     64  57  77 NW3       30.14R
LAKEVILLE      CLEAR     61  55  82 W5        30.14S
EDEN PRAIRIE   CLEAR     67  56  67 NW6       30.13S
SOUTH ST PAUL  CLEAR     65  54  67 CALM      30.13S
LAKE ELMO      FAIR      59  55  88 CALM      30.14S
$$
MNZ001>005-007-008-013>017-022>024-027-028-290500-
   Northwest Minnesota

CITY           SKY/WX    TMP DP  RH WIND       PRES   REMARKS
BEMIDJI        CLEAR     57  52  84 W6        30.18S
HALLOCK        CLEAR     64  57  77 CALM      30.18S
ROSEAU         CLEAR     64  55  72 W7        30.17S
WARROAD        CLEAR     64  57  77 W7        30.16F
THIEF RVR FALL CLEAR     61  55  82 NW6       30.19S
CROOKSTON      CLEAR     61  55  82 N3        30.19S
FOSSTON        CLEAR     54  48  82 CALM      30.20S
DETROIT LAKES  CLEAR     61  55  82 CALM      30.21S
MOORHEAD       CLEAR     61  59  94 CALM      30.20S
PARK RAPIDS    CLEAR     56  53  90 W3        30.19R
$$
MNZ006-009>011-018-025>026-290500-
   North Central Minnesota

CITY           SKY/WX    TMP DP  RH WIND       PRES   REMARKS
BAUDETTE       CLEAR     63  56  78 VRB5      30.15F
FLAG ISLAND    MOCLDY    70  55  60 NE6       30.14S
INTL FALLS     PTCLDY    60  56  86 CALM      30.12F
WASKISH        CLEAR     66  57  72 W7        30.16S
BIG FORK       CLEAR     57  55  94 W1        30.16R
LONGVILLE      CLEAR     57  55  94 W3        30.16S
GRAND RAPIDS   CLEAR     64  54  68 NW7       30.15F
CRANE LAKE     MOCLDY    57  55  94 CALM      30.14F
ORR            RAIN      57  54  88 CALM      30.12R
COOK           PTCLDY    63  54  72 N6        30.15R
$$
MNZ012-019>021-037-290500-
   Northeast Minnesota

CITY           SKY/WX    TMP DP  RH WIND       PRES   REMARKS
DULUTH         CLEAR     62  54  74 NW8       30.11S
ELY            MOCLDY    61  52  72 CALM      30.13S
HIBBING        CLEAR     58  53  84 NW6       30.13S
EVELETH        CLEAR     63  54  72 NW6       30.13S
DULUTH HARBOR  CLEAR     68  59  73 W9        30.09F
TWO HARBORS    CLEAR     63  54  72 NW3       30.07S
SILVER BAY     LGT RAIN  61  54  77 N9G17     30.09R
GRAND MARAIS     N/A     63  54  72 VRB3      30.04F
G MARAIS ARPRT CLOUDY    55  52  88 NW3       30.09F
$$
MNZ029>031-032-039>041-046>048-054>057-064-290500-
   West Central Minnesota

CITY           SKY/WX    TMP DP  RH WIND       PRES   REMARKS
FERGUS FALLS   CLEAR     57  52  82 CALM      30.20S
WHEATON        CLEAR     57  54  88 W3        30.22S
MORRIS         CLEAR     55  54  94 NW5       30.19S
ALEXANDRIA     CLEAR     63  54  72 CALM      30.21R
ELBOW LAKE     FAIR      59  54  83 NW5       30.20S
WADENA         CLEAR     59  54  82 CALM      30.19S
GLENWOOD       CLEAR     57  54  88 NW8       30.20S
APPLETON       CLEAR     57  54  88 CALM      30.20S
BENSON         CLEAR     57  54  88 N5        30.20S
ORTONVILLE     CLEAR     63  54  72 NW3       30.20S
MADISON        CLEAR     59  55  88 W5        30.21R
WILLMAR        FAIR      61  54  77 NW5       30.20S
$$
MNZ033>034-036-042>043-049>051-058-059-290500-
   Central Minnesota

CITY           SKY/WX    TMP DP  RH WIND       PRES   REMARKS
ST CLOUD       CLEAR     63  55  75 NW5       30.15S
SAUK CENTRE    FAIR      58  54  84 NW3       30.19R
PAYNESVILLE    CLEAR     53  52  96 SW5       30.19R
AITKIN         CLEAR     57  54  88 CALM      30.14F
PINE RIVER     CLEAR     61  55  82 CALM      30.20S
BRAINERD       CLEAR     62  54  74 NW6       30.17S
STAPLES        CLEAR     57  54  88 NW5       30.18S
LONG PRAIRIE   FAIR      61  52  72 NW6       30.19S
LITTLE FALLS   CLEAR     59  54  82 CALM      30.17S
LITCHFIELD     MOCLDY    66  57  72 NW7       30.18S
BUFFALO        CLEAR     66  54  65 W6        30.16S
MAPLE LAKE     CLEAR     65  57  75 W5        30.17S
$$
MNZ037-044-045-052-053-290500-
   East Central Minnesota

CITY           SKY/WX    TMP DP  RH WIND       PRES   REMARKS
PRINCETON      CLEAR     61  55  82 W3        30.15S
MORA           CLEAR     57  54  88 CALM      30.15F
CAMBRIDGE      CLEAR     61  52  72 CALM      30.13S
RUSH CITY      PTCLDY    59  55  85 CALM      30.13F
MOOSE LAKE     PTCLDY    63  54  72 NW5       30.11S
HINCKLEY       FAIR      63  55  77 CALM      30.13S
CLOQUET        CLEAR     63  54  72 W7        30.12S
MCGREGOR       CLEAR     63  54  72 NW6       30.14F
$$
MNZ071>073-080-081-089-090-097-098-290500-
   Southwest Minnesota

CITY           SKY/WX    TMP DP  RH WIND       PRES   REMARKS
MONTEVIDEO     CLEAR     61  54  77 NW5       30.21R
GRANITE FALLS  CLEAR     56  53  89 W5        30.21S
CANBY          CLEAR     57  52  84 W5        30.22S
MARSHALL       CLEAR     55  50  82 W8        30.20S
REDWOOD FALLS  CLEAR     60  54  80 NW7       30.18S
OLIVIA         CLEAR     59  54  82 NW5       30.18S
PIPESTONE      CLEAR     61  54  77 CALM      30.23S
WINDOM         CLEAR     59  54  82 NW6       30.21S
WORTHINGTON    CLEAR     55  52  88 NW5       30.23S
JACKSON        CLEAR     57  52  82 W5        30.21S
TRACY          CLEAR     61  53  76 W5        30.21S
SLAYTON        CLEAR     56  53  89 CALM      30.23S
$$
MNZ065>067-074>077-082>085-091>093-290500-
   South Central Minnesota

CITY           SKY/WX    TMP DP  RH WIND       PRES   REMARKS
MANKATO        CLEAR     63  52  67 NW3       30.16S
NEW ULM        CLEAR     61  55  82 NW7       30.17S
ST JAMES       CLEAR     59  55  88 W5        30.19S
FAIRMONT       CLEAR     61  52  72 NW7       30.18S
GLENCOE        CLEAR     64  55  73 W6        30.16R
FARIBAULT      CLEAR     63  54  72 W5        30.15S
OWATONNA       CLEAR     57  54  88 CALM      30.16S
WASECA         CLEAR     55  50  82 W3        30.17F
ALBERT LEA     CLEAR     63  54  72 CALM      30.16F
$$
MNZ078>079-086>088-094>096-290500-
   Southeast Minnesota

CITY           SKY/WX    TMP DP  RH WIND       PRES   REMARKS
ROCHESTER      CLEAR     59  53  80 W8        30.15F
RED WING       CLEAR     59  55  88 CALM      30.11S
STANTON        CLEAR     62  55  80 SW3       30.13S
DODGE CENTER   PTCLDY    61  55  82 W7        30.15S
WINONA         CLEAR     61  54  77 CALM      30.12S
AUSTIN         PTCLDY    63  55  77 CALM      30.15S
PRESTON        CLEAR     59  56  91 W7        30.15S
$$
ABBREVIATIONS USED IN REMARKS
   TC - TEMPERATURES IN CELSIUS
  WCI - WIND CHILL INDEX
   HX - HEAT INDEX
  VSB - VISIBILITY
$$


USA.gov is the U.S. government's official web portal to all federal, state and local government web resources and services.